TAR181 DTTF-DTTA

Flight info

Callsign TAR181
Flight time 0h 36m
Altitude 23000
Route SOUIN2B SOUIN DCT BAN L44 RATBA DCT ROVIL
Aircraft A320/M-SDE3FGHIRWY/LB1

Departure

Time 2026-04-23 20:30
Airport Gafsa Ksar International Airport (DTTF)

Arrival

Time 2026-04-23 21:06
Airport Tunis Carthage International Airport (DTTA)
Time Latitude Longitude Altitude Speed Heading
2026-04-23 20:17 34.41738 8.81228 1022 ft 0 kts 316°
2026-04-23 20:26 34.41738 8.81225 1024 ft 1 kts 288°
2026-04-23 20:26 34.41734 8.81221 1024 ft 1 kts 236°
2026-04-23 20:26 34.41703 8.81210 1024 ft 10 kts 182°
2026-04-23 20:26 34.41646 8.81251 1024 ft 6 kts 139°
2026-04-23 20:27 34.41633 8.81263 1023 ft 0 kts 139°
2026-04-23 20:27 34.41600 8.81298 1023 ft 12 kts 140°
2026-04-23 20:27 34.41555 8.81327 1022 ft 6 kts 182°
2026-04-23 20:27 34.41522 8.81302 1022 ft 5 kts 224°
2026-04-23 20:28 34.41479 8.81247 1022 ft 15 kts 227°
2026-04-23 20:28 34.41423 8.81172 1022 ft 10 kts 225°
2026-04-23 20:28 34.41357 8.81123 1022 ft 11 kts 214°
2026-04-23 20:28 34.41366 8.81102 1022 ft 2 kts 33°
2026-04-23 20:29 34.41390 8.81128 1022 ft 13 kts 46°
2026-04-23 20:29 34.41623 8.81445 1023 ft 85 kts 49°
2026-04-23 20:29 34.42146 8.82163 1033 ft 140 kts 48°
2026-04-23 20:29 34.42849 8.83147 1374 ft 158 kts 52°
2026-04-23 20:30 34.43566 8.84183 2032 ft 161 kts 51°
2026-04-23 20:30 34.45077 8.86319 3070 ft 184 kts 51°
2026-04-23 20:30 34.45962 8.87576 3392 ft 210 kts 50°
2026-04-23 20:31 34.46976 8.88996 3795 ft 234 kts 49°
2026-04-23 20:31 34.48190 8.90438 4354 ft 253 kts 37°
2026-04-23 20:31 34.49702 8.91577 5190 ft 259 kts 26°
2026-04-23 20:31 34.51346 8.92496 6072 ft 263 kts 21°
2026-04-23 20:32 34.53022 8.93347 6995 ft 265 kts 20°
2026-04-23 20:32 34.54722 8.94215 7939 ft 265 kts 20°
2026-04-23 20:32 34.56414 8.95114 8915 ft 265 kts 20°
2026-04-23 20:32 34.58092 8.96042 9861 ft 265 kts 20°
2026-04-23 20:33 34.59783 8.97002 10530 ft 276 kts 20°
2026-04-23 20:33 34.61594 8.98035 10805 ft 300 kts 20°
2026-04-23 20:33 34.63517 8.99223 11133 ft 321 kts 26°
2026-04-23 20:33 34.65433 9.00706 11772 ft 329 kts 27°
2026-04-23 20:34 34.67380 9.02209 12464 ft 335 kts 27°
2026-04-23 20:34 34.69365 9.03733 13164 ft 340 kts 26°
2026-04-23 20:34 34.71385 9.05281 13894 ft 345 kts 26°
2026-04-23 20:34 34.73426 9.06846 14520 ft 349 kts 26°
2026-04-23 20:35 34.75491 9.08431 15164 ft 353 kts 26°
2026-04-23 20:35 34.77575 9.10031 15808 ft 357 kts 26°
2026-04-23 20:35 34.79690 9.11658 16450 ft 360 kts 27°
2026-04-23 20:35 34.81818 9.13295 17085 ft 364 kts 27°
2026-04-23 20:36 34.83970 9.14950 17714 ft 368 kts 27°
2026-04-23 20:36 34.86160 9.16604 18327 ft 370 kts 24°
2026-04-23 20:36 34.88484 9.17956 18866 ft 371 kts 19°
2026-04-23 20:36 34.90842 9.19248 19445 ft 374 kts 18°
2026-04-23 20:37 34.93225 9.20553 20024 ft 376 kts 18°
2026-04-23 20:37 34.95621 9.21862 20620 ft 378 kts 18°
2026-04-23 20:37 34.98028 9.23176 21209 ft 381 kts 18°
2026-04-23 20:37 35.00451 9.24504 21779 ft 383 kts 18°
2026-04-23 20:38 35.02888 9.25846 22334 ft 385 kts 18°
2026-04-23 20:38 35.05342 9.27196 22864 ft 388 kts 18°
2026-04-23 20:38 35.07787 9.28629 23082 ft 392 kts 22°
2026-04-23 20:38 35.10171 9.30289 23135 ft 397 kts 23°
2026-04-23 20:39 35.12521 9.31989 23127 ft 398 kts 24°
2026-04-23 20:39 35.14884 9.33741 23141 ft 398 kts 24°
2026-04-23 20:39 35.17248 9.35512 23125 ft 398 kts 24°
2026-04-23 20:39 35.19612 9.37281 23130 ft 398 kts 24°
2026-04-23 20:40 35.21974 9.39041 23132 ft 398 kts 24°
2026-04-23 20:40 35.24340 9.40794 23132 ft 398 kts 24°
2026-04-23 20:40 35.26710 9.42545 23131 ft 398 kts 24°
2026-04-23 20:40 35.29079 9.44290 23131 ft 398 kts 24°
2026-04-23 20:41 35.31448 9.46031 23134 ft 398 kts 24°
2026-04-23 20:41 35.33826 9.47776 23151 ft 398 kts 24°
2026-04-23 20:41 35.36206 9.49526 23142 ft 399 kts 24°
2026-04-23 20:41 35.38582 9.51280 23150 ft 399 kts 24°
2026-04-23 20:42 35.40951 9.53035 23141 ft 399 kts 24°
2026-04-23 20:42 35.43330 9.54804 23136 ft 399 kts 24°
2026-04-23 20:42 35.45706 9.56571 23132 ft 399 kts 24°
2026-04-23 20:42 35.48082 9.58336 23130 ft 399 kts 24°
2026-04-23 20:43 35.50454 9.60098 23130 ft 399 kts 24°
2026-04-23 20:43 35.52830 9.61861 23131 ft 399 kts 24°
2026-04-23 20:43 35.55209 9.63626 23130 ft 399 kts 24°
2026-04-23 20:43 35.57593 9.65394 23113 ft 399 kts 24°
2026-04-23 20:44 35.59943 9.67143 22843 ft 392 kts 24°
2026-04-23 20:44 35.62262 9.68874 22576 ft 388 kts 24°
2026-04-23 20:44 35.64566 9.70592 22318 ft 386 kts 24°
2026-04-23 20:44 35.66862 9.72305 22050 ft 385 kts 24°
2026-04-23 20:45 35.69148 9.74009 21784 ft 384 kts 24°
2026-04-23 20:45 35.71428 9.75707 21534 ft 382 kts 24°
2026-04-23 20:45 35.73698 9.77402 21286 ft 380 kts 24°
2026-04-23 20:45 35.75951 9.79088 21027 ft 379 kts 25°
2026-04-23 20:46 35.78174 9.80753 20776 ft 378 kts 25°
2026-04-23 20:46 35.80446 9.82452 20527 ft 377 kts 24°
2026-04-23 20:46 35.82689 9.84128 20299 ft 376 kts 24°
2026-04-23 20:46 35.84894 9.85779 20073 ft 375 kts 24°
2026-04-23 20:47 35.87119 9.87447 19833 ft 374 kts 24°
2026-04-23 20:47 35.89333 9.89112 19589 ft 372 kts 24°
2026-04-23 20:47 35.91536 9.90771 19355 ft 370 kts 24°
2026-04-23 20:47 35.93734 9.92425 19117 ft 369 kts 24°
2026-04-23 20:48 35.95920 9.94069 18890 ft 368 kts 24°
2026-04-23 20:48 35.98099 9.95707 18601 ft 363 kts 24°
2026-04-23 20:48 36.00243 9.97323 18107 ft 360 kts 24°
2026-04-23 20:48 36.02371 9.98927 17624 ft 356 kts 24°
2026-04-23 20:49 36.04479 10.00516 17142 ft 353 kts 24°
2026-04-23 20:49 36.06564 10.02087 16673 ft 350 kts 24°
2026-04-23 20:49 36.08633 10.03648 16293 ft 345 kts 24°
2026-04-23 20:49 36.10634 10.05167 16216 ft 331 kts 24°
2026-04-23 20:50 36.12569 10.06636 16143 ft 326 kts 24°
2026-04-23 20:50 36.14511 10.08099 15881 ft 326 kts 24°
2026-04-23 20:50 36.16443 10.09554 15452 ft 325 kts 24°
2026-04-23 20:50 36.18367 10.11004 15140 ft 319 kts 24°
2026-04-23 20:51 36.20216 10.12410 15011 ft 304 kts 24°
2026-04-23 20:51 36.21982 10.13762 14585 ft 294 kts 24°
2026-04-23 20:51 36.23710 10.15077 14035 ft 289 kts 24°
2026-04-23 20:51 36.25416 10.16369 13397 ft 287 kts 24°
2026-04-23 20:52 36.27120 10.17655 12905 ft 286 kts 25°
2026-04-23 20:52 36.28818 10.18936 12492 ft 285 kts 24°
2026-04-23 20:52 36.30509 10.20218 12061 ft 284 kts 25°
2026-04-23 20:52 36.32189 10.21496 11660 ft 283 kts 25°
2026-04-23 20:53 36.33871 10.22776 11228 ft 284 kts 25°
2026-04-23 20:53 36.35558 10.24055 10800 ft 285 kts 25°
2026-04-23 20:53 36.37239 10.25331 10575 ft 281 kts 25°
2026-04-23 20:53 36.38906 10.26603 10501 ft 281 kts 25°
2026-04-23 20:54 36.40567 10.27868 10374 ft 280 kts 25°
2026-04-23 20:54 36.42223 10.29131 10259 ft 280 kts 25°
2026-04-23 20:54 36.43882 10.30397 10135 ft 280 kts 25°
2026-04-23 20:54 36.45533 10.31657 10007 ft 278 kts 25°
2026-04-23 20:55 36.47153 10.32903 9878 ft 268 kts 26°
2026-04-23 20:55 36.48715 10.34107 9741 ft 260 kts 25°
2026-04-23 20:55 36.50200 10.35250 9553 ft 247 kts 25°
2026-04-23 20:55 36.51655 10.36368 9094 ft 241 kts 25°
2026-04-23 20:56 36.53059 10.37440 8567 ft 238 kts 26°
2026-04-23 20:56 36.54465 10.38509 8058 ft 235 kts 26°
2026-04-23 20:56 36.55856 10.39567 7610 ft 236 kts 27°
2026-04-23 20:56 36.57256 10.40635 7246 ft 236 kts 27°
2026-04-23 20:57 36.58653 10.41702 6975 ft 232 kts 28°
2026-04-23 20:57 36.60021 10.42750 6659 ft 232 kts 28°
2026-04-23 20:57 36.61389 10.43801 6390 ft 228 kts 28°
2026-04-23 20:57 36.62741 10.44839 5977 ft 230 kts 29°
2026-04-23 20:58 36.64101 10.45881 5622 ft 229 kts 29°
2026-04-23 20:58 36.65453 10.46921 5299 ft 227 kts 29°
2026-04-23 20:58 36.66793 10.47954 4979 ft 224 kts 30°
2026-04-23 20:58 36.68110 10.48968 4672 ft 224 kts 30°
2026-04-23 20:59 36.69434 10.49986 4357 ft 222 kts 30°
2026-04-23 20:59 36.70758 10.50939 4077 ft 218 kts 22°
2026-04-23 20:59 36.72189 10.51380 4015 ft 205 kts
2026-04-23 20:59 36.73543 10.51250 4012 ft 191 kts 348°
2026-04-23 21:00 36.74729 10.50669 4036 ft 176 kts 333°
2026-04-23 21:00 36.75670 10.49784 4028 ft 166 kts 319°
2026-04-23 21:00 36.76389 10.48657 4010 ft 168 kts 306°
2026-04-23 21:00 36.76888 10.47328 3864 ft 170 kts 297°
2026-04-23 21:01 36.77344 10.45967 3664 ft 170 kts 297°
2026-04-23 21:01 36.77803 10.44599 3450 ft 172 kts 297°
2026-04-23 21:01 36.78254 10.43253 3230 ft 172 kts 297°
2026-04-23 21:01 36.78725 10.41849 2982 ft 173 kts 298°
2026-04-23 21:02 36.79040 10.40907 2825 ft 173 kts 297°
2026-04-23 21:02 36.79658 10.39062 2524 ft 174 kts 297°
2026-04-23 21:02 36.80123 10.37670 2287 ft 173 kts 297°
2026-04-23 21:02 36.80586 10.36284 2062 ft 173 kts 297°
2026-04-23 21:03 36.81049 10.34900 1828 ft 172 kts 297°
2026-04-23 21:03 36.81510 10.33520 1592 ft 168 kts 298°
2026-04-23 21:03 36.81935 10.32242 1365 ft 155 kts 297°
2026-04-23 21:03 36.82344 10.31018 1147 ft 150 kts 297°
2026-04-23 21:04 36.82743 10.29824 944 ft 147 kts 298°
2026-04-23 21:04 36.83129 10.28662 724 ft 141 kts 296°
2026-04-23 21:04 36.83512 10.27535 540 ft 140 kts 298°
2026-04-23 21:04 36.83805 10.26672 382 ft 137 kts 296°
2026-04-23 21:05 36.84165 10.25553 231 ft 140 kts 296°
2026-04-23 21:05 36.84406 10.24811 111 ft 139 kts 295°
2026-04-23 21:05 36.84883 10.23426 29 ft 112 kts 292°
2026-04-23 21:05 36.85108 10.22727 35 ft 58 kts 291°
2026-04-23 21:06 36.85185 10.22463 36 ft 13 kts 244°
2026-04-23 21:06 36.85137 10.22432 34 ft 13 kts 193°
2026-04-23 21:06 36.85053 10.22408 32 ft 11 kts 194°
2026-04-23 21:06 36.84976 10.22386 31 ft 11 kts 191°
2026-04-23 21:07 36.84903 10.22367 31 ft 10 kts 193°
2026-04-23 21:07 36.84834 10.22347 30 ft 10 kts 193°
2026-04-23 21:07 36.84729 10.22318 30 ft 20 kts 192°
2026-04-23 21:07 36.84644 10.22296 30 ft 15 kts 190°
2026-04-23 21:08 36.84583 10.22280 30 ft 4 kts 192°
2026-04-23 21:08 36.84556 10.22273 30 ft 4 kts 192°
2026-04-23 21:08 36.84530 10.22266 30 ft 3 kts 192°
2026-04-23 21:08 36.84508 10.22260 30 ft 3 kts 192°
2026-04-23 21:09 36.84486 10.22250 30 ft 3 kts 223°
2026-04-23 21:09 36.84484 10.22213 30 ft 8 kts 285°
2026-04-23 21:09 36.84513 10.22120 30 ft 12 kts 285°
2026-04-23 21:09 36.84547 10.22060 30 ft 6 kts 310°
2026-04-23 21:10 36.84562 10.22023 30 ft 3 kts 289°
2026-04-23 21:10 36.84564 10.22013 30 ft 1 kts 289°
2026-04-23 21:10 36.84566 10.22006 30 ft 1 kts 289°